Location: Augustenthal
(51.7167°N, 10.2833°E)
Time: 21:31:10
(UTC+00:00)

ALOS 2 - Pass Details

Date: 25 September 2021
Orbit: 630 x 632 km, 97.9° (Epoch: 16 October)

Event Time Altitude Azimuth Distance (km) Brightness Sun altitude
Exits shadow 21:43:43 13° 9° (N) 1,810 5.4 -36.3°
Drops below altitude 10° 21:44:20 10° 4° (N) 2,026 5.8 -36.4°
Sets 21:46:46 0° 354° (N) 2,938 6.9 -36.5°
